Flag for Moldova Weather past 2 weeks in Chisinau, Moldova

Now
68 °F

Partly sunny.


Feels Like: 68 °F
Forecast: 50 / 73 °F
Wind: 14 mph from Northwest

Location: Chisinau International Airport

Current Time: Aug 28, 2014 at 3:08:30 PM

Latest Report: Aug 28, 2014 at 2:30 PM


Visibility: N/A

Pressure: 29.95 "Hg

Humidity: 49%

Dew point: 48 °F

Location of ChisinauLocation

Historic Weather in Chisinau — Graph

°F

Chisinau temperature yesterday

Maximum temperature yesterday: 86 °F (at 3:00 PM)
Minimum temperature yesterday: 63 °F (at 6:00 AM)
Average temperature yesterday: 73 °F

Past Weeks' High & Low Weather Summary

 TemperatureHumidityPressure
High97 °F (Aug 14, 2:00 PM)94% (Aug 22, 2:00 AM)30.12 "Hg (Aug 22, 2:00 AM)
Low50 °F (Aug 19, 5:00 AM)14% (Aug 14, 2:30 PM)29.71 "Hg (Aug 27, 2:30 PM)
Average71 °F57%29.92 "Hg
* Reported Aug 13 2:00 PM — Aug 28 2:00 PM, Chisinau, Weather by CustomWeather, © 2014

Note: Actual official high and low records may vary slightly from our data, if they occured in-between our weather recording intervals... More about our weather records

Advertising

Chisinau weather history for previous 24 hours

 ConditionsComfort  
Time TempWeatherWind HumidityBarometerVisibility
2:00 PM
Aug 28
70 °FPartly sunny.20 mph43%29.92 "HgN/A
1:30 PM68 °FPartly sunny.16 mph43%29.92 "HgN/A
1:00 PM66 °FPartly sunny.18 mph49%29.92 "HgN/A
12:30 PM66 °FPartly sunny.17 mph56%29.92 "HgN/A
12:00 PM64 °FPartly sunny.12 mph64%29.92 "HgN/A
11:30 AM63 °FPartly sunny.14 mph68%29.92 "HgN/A
11:00 AM63 °FPartly sunny.13 mph68%29.92 "HgN/A
10:30 AM63 °FPartly sunny.15 mph73%29.89 "HgN/A
10:00 AM61 °FPartly sunny.14 mph77%29.89 "HgN/A
9:30 AM61 °FPartly sunny.16 mph77%29.86 "HgN/A
9:00 AM61 °FLight rain. Mostly cloudy.15 mph83%29.86 "HgN/A
8:30 AM64 °FMostly cloudy.10 mph73%29.83 "HgN/A
8:00 AM64 °FPartly sunny.9 mph73%29.83 "HgN/A
7:30 AM63 °FPartly sunny.9 mph77%29.80 "HgN/A
7:00 AM63 °FPassing clouds.12 mph83%29.80 "HgN/A
6:30 AM63 °FPassing clouds.12 mph83%29.80 "HgN/A
6:00 AM63 °FPassing clouds.9 mph83%29.77 "HgN/A
5:30 AM63 °FPassing clouds.12 mph88%29.77 "HgN/A
5:00 AM64 °FPassing clouds.16 mph83%29.74 "HgN/A
4:30 AM64 °FPartly cloudy.10 mph88%29.74 "HgN/A
4:00 AM66 °FPassing clouds.10 mph83%29.74 "HgN/A
3:30 AM64 °FPassing clouds.9 mph88%29.74 "HgN/A
3:00 AM64 °FOvercast.9 mph88%29.74 "HgN/A
2:30 AM66 °FPassing clouds.8 mph83%29.74 "HgN/A
2:00 AM66 °FPassing clouds.10 mph88%29.74 "Hg5 mi
1:30 AM66 °FFog.9 mph88%29.74 "Hg2 mi
1:00 AM66 °FFog.6 mph88%29.74 "Hg2 mi
12:30 AM66 °FFog.No wind88%29.74 "Hg3 mi
12:00 AM66 °FFog.2 mph88%29.77 "Hg3 mi
11:30 PM
Aug 27
66 °FFog.No wind88%29.77 "Hg2 mi
11:00 PM66 °FFog.3 mph88%29.74 "Hg2 mi
10:30 PM66 °FSprinkles. Fog.3 mph88%29.74 "Hg3 mi
10:00 PM66 °FSprinkles. Passing clouds.6 mph88%29.74 "Hg4 mi
9:00 PM66 °FSprinkles. Passing clouds.6 mph88%29.74 "Hg5 mi
8:30 PM68 °FSprinkles. Partly sunny.5 mph83%29.74 "HgN/A
8:00 PM70 °FRain showers. Partly sunny.2 mph73%29.71 "Hg2 mi
7:30 PM70 °FLight rain. Partly sunny.5 mph69%29.71 "HgN/A
7:00 PM70 °FPartly sunny.6 mph69%29.71 "HgN/A
6:00 PM72 °FPartly sunny.12 mph69%29.71 "HgN/A
5:30 PM73 °FPartly sunny.17 mph61%29.71 "HgN/A
5:00 PM81 °FPartly sunny.15 mph42%29.71 "HgN/A
4:30 PM82 °FPartly sunny.10 mph35%29.71 "HgN/A
4:00 PM84 °FPartly sunny.10 mph35%29.71 "HgN/A
3:30 PM84 °FPartly sunny.10 mph35%29.71 "HgN/A
3:00 PM86 °FPartly sunny.8 mph33%29.71 "HgN/A
Weather by CustomWeather, © 2014

See weather overviewHow to use our weather pages